Location: ???????
(55.3754°N, 39.3545°E)
Time: 07:47:31
(UTC+00:00)

Cosmos 372 Rocket - Pass Details

Date: 14 April 2026
Orbit: 733 x 762 km, 74.1° (Epoch: 9 May)

Event Time Altitude Azimuth Distance (km) Brightness Sun altitude
Rises 17:02:47 0° 213° (SSW) 3,214 7.3 -5.7°
Reaches altitude 10° 17:05:09 10° 215° (SW) 2,294 6.6 -6.0°
Maximum altitude 17:10:22 72° 300° (WNW) 806 4.4 -6.7°
Drops below altitude 10° 17:15:36 10° 25° (NNE) 2,308 6.5 -7.3°
Sets 17:18:00 0° 28° (NNE) 3,235 7.3 -7.6°
